FW7746 Weather Reports


time (UTC)temp
C
wind
direction
speed
KPH
gust
KPH
rain 1hr
cm
rain 24hr
cm
rain mn
cm
humidity
%
barometer
mb
20260904022604 12 173 0.0 0.0 0.00 0.03 0.00 53 1009.0
20260904022103 12 172 0.0 0.0 0.00 0.03 0.00 52 1009.0
20260904021603 12 173 0.0 0.0 0.00 0.03 0.00 52 1009.0
20260904021104 12 172 0.0 0.0 0.00 0.03 0.00 51 1009.0
20260904020603 12 172 0.0 0.0 0.00 0.03 0.00 51 1009.0
20260904015603 13 172 0.0 0.0 0.00 0.03 0.00 51 1009.1
20260904015103 13 172 0.0 0.0 0.00 0.03 0.00 50 1009.1
20260904014104 13 171 0.0 3.2 0.00 0.03 0.00 49 1009.1
20260904013604 13 180 0.0 0.0 0.00 0.03 0.00 50 1009.0
20260904013103 13 181 0.0 0.0 0.00 0.05 0.00 50 1009.0
20260904012603 13 181 0.0 0.0 0.00 0.05 0.00 49 1009.0
20260904012103 13 180 0.0 3.2 0.00 0.08 0.00 48 1009.0
20260904011603 13 207 0.0 0.0 0.00 0.10 0.00 49 1008.9
20260904011104 13 207 0.0 0.0 0.00 0.15 0.00 49 1008.8
20260904010604 13 207 0.0 1.6 0.00 0.18 0.00 48 1008.7
20260904010104 13 209 0.0 4.8 0.00 0.23 0.00 48 1008.8
20260904005603 13 195 0.0 1.6 0.00 0.23 0.00 47 1008.6
20260904005104 13 190 0.0 0.0 0.00 0.25 0.00 47 1008.8
20260904004603 13 182 0.0 1.6 0.00 0.28 0.00 47 1008.8
20260904003604 13 189 0.0 0.0 0.00 0.28 0.00 46 1008.9
20260904003103 13 215 0.0 4.8 0.00 0.28 0.00 47 1008.9
20260904002604 14 188 0.0 1.6 0.00 0.28 0.00 46 1008.9
20260904001603 13 212 0.0 0.0 0.00 0.28 0.00 46 1008.8
20260904001104 14 211 1.6 8.0 0.00 0.28 0.00 43 1008.9
20260904000603 15 218 1.6 11.3 0.00 0.28 0.00 43 1008.8
20260904000104 15 155 0.0 1.6 0.00 0.28 0.00 44 1008.8
20260903235604 15 163 0.0 3.2 0.00 0.28 0.00 44 1008.8
20260903235104 15 113 0.0 0.0 0.00 0.28 0.00 45 1008.8
20260903234103 15 151 0.0 3.2 0.00 0.28 0.00 45 1008.8
20260903233603 15 52 1.6 9.7 0.00 0.28 0.00 47 1008.9
20260903233103 14 222 1.6 8.0 0.00 0.28 0.00 48 1008.9
20260903232603 14 121 0.0 3.2 0.00 0.28 0.00 47 1009.0
20260903231103 14 147 0.0 3.2 0.00 0.28 0.00 47 1009.1
20260903230604 15 144 0.0 1.6 0.00 0.28 0.00 46 1009.1
20260903230103 15 134 0.0 3.2 0.00 0.28 0.00 45 1009.2
20260903225603 15 91 1.6 9.7 0.00 0.28 0.00 47 1009.1
20260903224104 14 232 0.0 3.2 0.00 0.28 0.00 49 1009.4
20260903223603 14 197 1.6 8.0 0.00 0.28 0.00 50 1009.5
20260903223104 13 200 0.0 3.2 0.00 0.28 0.00 52 1009.6
20260903222603 13 171 0.0 0.0 0.00 0.28 0.00 53 1009.6
20260903222104 13 198 0.0 1.6 0.00 0.28 0.00 53 1009.6
20260903221603 13 217 0.0 3.2 0.00 0.28 0.00 54 1009.7
20260903221104 13 196 0.0 0.0 0.00 0.28 0.00 53 1009.8
20260903220604 12 225 0.0 4.8 0.00 0.28 0.00 55 1009.8
20260903215603 13 203 0.0 3.2 0.00 0.28 0.00 54 1009.9
20260903215104 13 158 0.0 1.6 0.00 0.28 0.00 54 1010.0
20260903214104 13 209 0.0 0.0 0.00 0.28 0.00 53 1010.2
20260903213103 13 185 0.0 3.2 0.00 0.28 0.00 54 1010.4
20260903212603 13 153 0.0 1.6 0.00 0.28 0.00 54 1010.4
20260903212104 13 148 0.0 3.2 0.00 0.28 0.00 54 1010.4
20260903211604 13 187 0.0 1.6 0.00 0.28 0.00 54 1010.4
20260903211103 13 179 0.0 4.8 0.00 0.28 0.00 54 1010.4
20260903210604 13 190 0.0 3.2 0.00 0.28 0.00 55 1010.3
20260903210104 13 172 0.0 1.6 0.00 0.28 0.00 54 1010.4
20260903205603 13 222 1.6 4.8 0.00 0.28 0.00 53 1010.3
20260903205103 13 130 1.6 8.0 0.00 0.28 0.00 54 1010.3
20260903204605 13 209 0.0 0.0 0.00 0.30 0.00 55 1010.3
20260903204103 12 211 0.0 4.8 0.00 0.30 0.00 56 1010.3
20260903203104 12 237 0.0 11.3 0.00 0.30 0.00 56 1010.3
20260903202604 12 204 0.0 4.8 0.00 0.30 0.00 55 1010.4
20260903202103 12 206 0.0 11.3 0.00 0.30 0.00 56 1010.4
20260903201604 12 233 1.6 8.0 0.00 0.30 0.00 56 1010.5
20260903201104 12 218 0.0 3.2 0.00 0.30 0.00 60 1010.6
20260903200604 12 215 0.0 4.8 0.00 0.30 0.00 57 1010.5
20260903200104 12 217 0.0 4.8 0.00 0.33 0.00 59 1010.7
20260903195603 12 235 1.6 4.8 0.00 0.33 0.00 59 1010.6
20260903194603 12 151 0.0 4.8 0.00 0.36 0.00 60 1010.6
20260903194104 12 335 0.0 3.2 0.00 0.36 0.00 61 1010.6
20260903193604 12 240 0.0 3.2 0.00 0.36 0.00 62 1010.6
20260903192604 12 189 1.6 12.9 0.00 0.36 0.00 62 1010.8
20260903192104 12 254 0.0 1.6 0.00 0.38 0.00 63 1010.8
20260903191603 12 59 0.0 3.2 0.00 0.38 0.00 63 1010.9
20260903190603 12 158 0.0 4.8 0.00 0.41 0.00 62 1010.9
20260903190104 11 139 0.0 4.8 0.00 0.43 0.00 64 1011.0
20260903185603 12 138 1.6 4.8 0.00 0.43 0.00 66 1011.0
20260903185104 11 176 0.0 0.0 0.00 0.43 0.00 65 1011.0
20260903184603 11 174 0.0 0.0 0.00 0.46 0.00 68 1011.1
20260903184103 11 177 0.0 4.8 0.00 0.46 0.00 67 1011.1
20260903183103 11 200 0.0 4.8 0.00 0.46 0.00 68 1011.2
20260903182604 11 124 0.0 3.2 0.00 0.46 0.00 70 1011.1
20260903182104 11 160 0.0 0.0 0.00 0.46 0.00 71 1011.2
20260903181103 10 148 0.0 1.6 0.00 0.46 0.00 71 1011.1
20260903180604 10 244 0.0 4.8 0.00 0.46 0.00 73 1011.1
20260903180104 10 70 0.0 1.6 0.00 0.46 0.00 74 1011.1
20260903175604 10 216 0.0 3.2 0.00 0.46 0.00 74 1011.1
20260903175103 10 217 0.0 1.6 0.00 0.46 0.00 74 1011.0
20260903174604 10 194 0.0 0.0 0.00 0.46 0.00 76 1011.1
20260903174104 10 194 0.0 3.2 0.00 0.46 0.00 76 1011.0
20260903173604 10 231 0.0 3.2 0.00 0.46 0.00 77 1011.0
20260903172604 10 159 0.0 1.6 0.00 0.46 0.00 77 1011.1
20260903171104 9 183 0.0 0.0 0.00 0.46 0.00 80 1011.0
20260903165604 8 165 0.0 0.0 0.00 0.46 0.00 81 1011.0
20260903165104 8 152 0.0 1.6 0.00 0.46 0.00 80 1011.1
20260903164603 8 153 0.0 0.0 0.00 0.46 0.00 81 1011.2
20260903163603 8 160 0.0 0.0 0.00 0.46 0.00 82 1011.2
20260903163104 8 160 0.0 0.0 0.00 0.46 0.00 81 1011.2
20260903162104 8 160 0.0 0.0 0.00 0.46 0.00 81 1011.0
20260903161605 8 160 0.0 1.6 0.00 0.46 0.00 81 1011.0
20260903161104 8 150 0.0 0.0 0.00 0.46 0.00 81 1011.1
20260903160604 8 150 0.0 0.0 0.00 0.46 0.00 82 1011.3
20260903160104 8 150 0.0 3.2 0.00 0.46 0.00 82 1011.4
20260903155103 8 189 0.0 0.0 0.00 0.46 0.00 82 1011.4
20260903154603 8 189 0.0 0.0 0.00 0.46 0.00 83 1011.4
20260903154104 8 189 0.0 0.0 0.00 0.46 0.00 82 1011.4
20260903153603 8 189 0.0 0.0 0.00 0.46 0.00 83 1011.4
20260903153104 7 189 0.0 0.0 0.00 0.46 0.00 83 1011.4
20260903152604 7 189 0.0 0.0 0.00 0.46 0.00 83 1011.4
20260903151604 7 189 0.0 0.0 0.00 0.46 0.00 84 1011.4
20260903151103 7 189 0.0 0.0 0.00 0.46 0.00 84 1011.4
20260903150603 7 189 0.0 0.0 0.00 0.46 0.00 84 1011.4
20260903150104 7 189 0.0 0.0 0.00 0.46 0.00 84 1011.2
20260903145604 7 189 0.0 1.6 0.00 0.46 0.00 85 1011.3
20260903145103 7 189 0.0 0.0 0.00 0.46 0.00 85 1011.1
20260903144603 7 189 0.0 0.0 0.00 0.46 0.00 85 1011.1
20260903144103 7 189 0.0 0.0 0.00 0.46 0.00 85 1011.2
20260903143603 6 189 0.0 0.0 0.00 0.46 0.00 85 1011.1
20260903142103 6 189 0.0 0.0 0.00 0.46 0.00 85 1011.2
20260903141604 6 189 0.0 0.0 0.00 0.46 0.00 85 1011.1
20260903141103 6 189 0.0 0.0 0.00 0.46 0.00 85 1011.1
20260903140604 6 189 0.0 0.0 0.00 0.46 0.00 85 1011.2
20260903140104 6 189 0.0 0.0 0.00 0.46 0.00 85 1011.2
20260903135604 6 189 0.0 0.0 0.00 0.46 0.00 85 1011.3
20260903135103 6 189 0.0 0.0 0.00 0.46 0.00 84 1011.3
20260903134604 6 189 0.0 0.0 0.00 0.46 0.00 84 1011.3
20260903134104 6 189 0.0 0.0 0.00 0.46 0.00 83 1011.3
20260903133603 7 189 0.0 0.0 0.00 0.46 0.00 83 1011.3
20260903132104 6 182 0.0 0.0 0.00 0.46 0.00 84 1011.1
20260903131604 6 182 0.0 0.0 0.00 0.46 0.00 85 1011.1
20260903131104 6 182 0.0 0.0 0.00 0.46 0.00 85 1011.0
20260903130604 6 182 0.0 0.0 0.00 0.46 0.00 86 1011.0
20260903125104 6 182 0.0 0.0 0.00 0.46 0.00 88 1010.9
20260903124103 6 182 0.0 0.0 0.00 0.46 0.00 89 1010.8
20260903123604 6 182 0.0 0.0 0.00 0.46 0.00 89 1010.7
20260903123104 6 182 0.0 0.0 0.00 0.46 0.00 89 1010.7
20260903122603 6 182 0.0 0.0 0.00 0.46 0.00 90 1010.7
20260903122103 6 182 0.0 0.0 0.00 0.46 0.00 91 1010.8
20260903121104 5 182 0.0 0.0 0.00 0.46 0.00 91 1010.7
20260903120604 5 182 0.0 0.0 0.00 0.46 0.00 91 1010.7
20260903120104 5 182 0.0 0.0 0.00 0.46 0.00 91 1010.8
20260903115606 5 182 0.0 0.0 0.00 0.46 0.00 90 1010.7
20260903114604 6 182 0.0 0.0 0.00 0.46 0.00 89 1010.7
20260903114104 6 182 0.0 0.0 0.00 0.46 0.00 88 1010.5
20260903113104 6 182 0.0 0.0 0.00 0.46 0.00 87 1010.7
20260903112604 6 182 0.0 0.0 0.00 0.46 0.00 87 1010.6
20260903112104 6 182 0.0 0.0 0.00 0.46 0.00 87 1010.5
20260903111604 6 182 0.0 0.0 0.00 0.46 0.00 88 1010.5
20260903111104 6 182 0.0 0.0 0.00 0.46 0.00 88 1010.5
20260903110604 7 182 0.0 0.0 0.00 0.46 0.00 88 1010.5
20260903110104 7 182 0.0 0.0 0.00 0.46 0.00 87 1010.5
20260903105604 7 182 0.0 0.0 0.00 0.46 0.00 87 1010.5
20260903105104 7 182 0.0 0.0 0.00 0.46 0.00 86 1010.6
20260903104104 7 182 0.0 0.0 0.00 0.46 0.00 85 1010.6
20260903103604 7 182 0.0 0.0 0.00 0.46 0.00 84 1010.6
20260903103104 7 182 0.0 0.0 0.00 0.46 0.00 85 1010.6
20260903102603 7 182 0.0 0.0 0.00 0.46 0.00 84 1010.6
20260903102104 7 182 0.0 0.0 0.00 0.46 0.00 85 1010.7
20260903101604 7 182 0.0 0.0 0.00 0.46 0.00 85 1010.7
20260903101104 7 182 0.0 0.0 0.00 0.46 0.00 84 1010.7
20260903100604 7 182 0.0 0.0 0.00 0.46 0.00 85 1010.6
20260903095603 7 182 0.0 1.6 0.00 0.46 0.00 85 1010.3
20260903095104 7 212 0.0 0.0 0.00 0.46 0.00 85 1010.3
20260903094103 7 192 0.0 1.6 0.00 0.46 0.00 85 1010.2
20260903093604 7 205 0.0 1.6 0.00 0.46 0.00 85 1010.4
20260903093104 7 212 0.0 0.0 0.00 0.46 0.00 84 1010.3
20260903092603 7 218 0.0 1.6 0.00 0.46 0.00 84 1010.2
20260903091604 7 208 0.0 4.8 0.00 0.46 0.00 85 1010.0
20260903091105 7 213 0.0 3.2 0.00 0.46 0.00 85 1010.0
20260903090604 8 174 0.0 4.8 0.00 0.46 0.00 84 1009.9
20260903085603 8 168 0.0 8.0 0.00 0.46 0.00 85 1010.1
20260903085103 8 171 1.6 4.8 0.00 0.46 0.00 84 1010.0
20260903084604 8 196 1.6 4.8 0.00 0.46 0.00 85 1010.0
20260903084104 8 145 0.0 4.8 0.00 0.46 0.00 85 1010.2
20260903083604 8 160 0.0 3.2 0.00 0.46 0.00 85 1010.1
20260903083104 8 235 0.0 4.8 0.00 0.46 0.00 84 1010.2
20260903082103 8 183 0.0 1.6 0.00 0.46 0.00 84 1010.0
20260903081604 8 182 0.0 1.6 0.00 0.46 0.00 83 1010.0
20260903081104 8 182 0.0 4.8 0.00 0.46 0.00 82 1009.8
20260903080604 8 128 1.6 4.8 0.00 0.46 0.00 82 1009.7
20260903080104 8 200 1.6 8.0 0.00 0.46 0.00 82 1009.7
20260903075604 8 187 1.6 8.0 0.00 0.46 0.00 82 1009.8
20260903075103 8 175 0.0 4.8 0.00 0.46 0.00 83 1009.6
20260903074104 8 182 0.0 4.8 0.00 0.46 0.00 82 1009.5
20260903073604 8 253 1.6 4.8 0.00 0.46 0.00 83 1009.5
20260903073103 8 109 0.0 4.8 0.00 0.46 0.00 85 1009.6
20260903072603 8 229 0.0 12.9 0.00 0.46 0.00 86 1009.6
20260903072104 8 210 1.6 4.8 0.00 0.46 0.00 86 1009.6
20260903071604 8 155 0.0 0.0 0.00 0.46 0.00 88 1009.6
20260903071104 8 178 0.0 0.0 0.00 0.46 0.00 88 1009.5
20260903070604 8 178 0.0 0.0 0.00 0.46 0.00 88 1009.5
20260903070104 8 178 0.0 0.0 0.00 0.46 0.00 88 1009.5
20260903065603 8 178 0.0 0.0 0.00 0.46 0.46 88 1009.4
20260903065104 8 178 0.0 0.0 0.00 0.46 0.46 87 1009.5
20260903064603 8 178 0.0 0.0 0.00 0.46 0.46 87 1009.4
20260903064104 8 178 0.0 0.0 0.00 0.46 0.46 87 1009.5
20260903063604 8 178 0.0 0.0 0.00 0.46 0.46 87 1009.4
20260903063103 9 178 0.0 0.0 0.00 0.46 0.46 89 1009.2
20260903062604 9 178 0.0 0.0 0.00 0.46 0.46 90 1009.1
20260903062104 9 178 0.0 0.0 0.00 0.46 0.46 90 1009.0
20260903061605 9 178 0.0 0.0 0.00 0.46 0.46 91 1009.2
20260903060104 9 178 0.0 0.0 0.00 0.46 0.46 90 1009.4
20260903055104 9 166 0.0 4.8 0.00 0.46 0.46 89 1009.3
20260903054604 9 182 0.0 0.0 0.00 0.46 0.46 89 1009.3
20260903054104 9 182 0.0 1.6 0.00 0.46 0.46 89 1009.2
20260903053104 9 236 1.6 4.8 0.00 0.46 0.46 88 1009.3
20260903052603 9 221 0.0 4.8 0.00 0.46 0.46 88 1009.2
20260903052103 9 156 0.0 3.2 0.00 0.46 0.46 88 1009.2
20260903051104 10 196 0.0 3.2 0.00 0.46 0.46 87 1009.1
20260903050604 10 200 0.0 1.6 0.00 0.46 0.46 87 1009.0
20260903050104 10 199 0.0 3.2 0.00 0.46 0.46 86 1008.9
20260903045604 10 173 0.0 3.2 0.00 0.46 0.46 85 1008.9
20260903045104 10 185 0.0 1.6 0.00 0.46 0.46 85 1008.9
20260903044604 10 169 0.0 1.6 0.00 0.46 0.46 85 1008.7
20260903044104 10 144 0.0 0.0 0.00 0.46 0.46 85 1008.7
20260903043604 10 143 0.0 1.6 0.00 0.46 0.46 85 1008.8
20260903041604 10 129 0.0 0.0 0.00 0.46 0.46 86 1008.3
20260903041104 10 129 0.0 0.0 0.03 0.46 0.46 87 1008.4
20260903040604 10 128 0.0 0.0 0.03 0.46 0.46 88 1008.3
20260903035604 9 130 0.0 0.0 0.03 0.46 0.46 89 1008.3
20260903035104 9 128 0.0 0.0 0.03 0.46 0.46 89 1008.2
20260903034105 9 127 0.0 0.0 0.03 0.46 0.46 89 1008.2
20260903033604 9 125 0.0 1.6 0.03 0.46 0.46 89 1008.1
20260903033104 9 130 0.0 1.6 0.03 0.46 0.46 89 1008.1
20260903032103 9 124 0.0 3.2 0.03 0.46 0.46 88 1008.1
20260903031606 9 158 0.0 0.0 0.03 0.46 0.46 88 1008.0
20260903031103 9 158 0.0 0.0 0.00 0.43 0.43 86 1008.1
20260903030604 9 175 0.0 0.0 0.00 0.43 0.43 86 1008.1
20260903030104 9 175 0.0 1.6 0.00 0.43 0.43 86 1008.0
20260903025604 9 201 0.0 1.6 0.00 0.43 0.43 86 1008.1
20260903024104 10 159 0.0 0.0 0.00 0.43 0.43 87 1008.0
20260903023603 10 157 0.0 1.6 0.00 0.43 0.43 87 1008.1
20260903023104 10 157 0.0 3.2 0.03 0.43 0.43 87 1007.9